Location: Aalen
(48.8330°N, 10.1000°E)
Time: 20:45:27
(UTC+02:00)

S-56A Canister/Altair - Pass Details

Date: 04 August 2021
Orbit: 632 x 2500 km, 38.9° (Epoch: 19 September)

Event Time Altitude Azimuth Distance (km) Brightness Sun altitude
Rises 19:35:37 0° 274° (W) 5,956 14.1 11.1°
Reaches altitude 10° 19:39:35 10° 269° (W) 5,066 13.7 10.5°
Maximum altitude 19:53:21 46° 204° (SSW) 3,072 10.8 8.3°
Drops below altitude 10° 20:06:00 10° 137° (SE) 4,667 11.0 6.3°
Sets 20:09:30 0° 132° (SE) 5,466 11.3 5.8°
